User: anonymous   Login
Location: Unspecified
(0.0000°N, 0.0000°E)
Time: 10:33:04
(UTC+00:00)
Language:

Altair - Orbit

View from above orbital plane
View from above orbital plane
View from above satellite
View from above satellite

Ground track
Ground track

The orbit data is extracted from the following two-line orbital elements,

1 00050U 60009B   14354.78559460 -.00000133  00000-0 -43594-3 0  1530
2 00050 047.2283 226.0953 0113943 108.1389 253.1846 12.20089867425802
Epoch (UTC): 20 December 2014 18:51:15
Eccentricity: 0.0113943
inclination: 47.2283°
perigee height: 1501 km
apogee height: 1683 km
right ascension of ascending node: 226.0953°
argument of perigee: 108.1389°
revolutions per day: 12.20089867
mean anomaly at epoch: 253.1846°
orbit number at epoch: 42580

The dashed part of the orbit path shows where the satellite is in the earth's shadow,  

DLR